sat.trackr.live / text

‹ back to catalog

STARLINK-30253

NORAD 57525 · 2023-115E

PAYLOAD ACTIVE UNKNOWN

§ Identity

Operator
Country
US
Launch date
2023-08-08
Launch site
AFWTR
Launch vehicle
Mass (kg)
RCS (m²)

Purposes: comms

External: N2YO · Heavens-Above · Gunter

§ Orbital elements

Epoch: 2026-09-20T12:02:55.349664Z

Period
94.27 min
Inclination
43.0038°
Eccentricity
0.0000955
Mean motion
15.27578413 rev/d
Perigee alt
482.4 km
Apogee alt
483.7 km
Semi-major
6,861.2 km
B*
3.2766e-5
RAAN
341.5482°
Arg perigee
265.9786°
Mean anomaly
94.0956°
Rev number
17,214

§ Raw data

STARLINK-302531 57525U 23115E   26263.50202951  .00000640  00000+0  32766-4 0  99962 57525  43.0038 341.5482 0000955 265.9786  94.0956 15.27578413172144

JSON: /api/v1/satellites/57525 · /tle

For live sub-satellite position, see the globe view (requires WebGL).

§ Visibility from observer

Set your observer location to see the next 7 days of passes ≥ 10°. The values pass through the URL so the page stays shareable.

No JS? Fill the form by hand. The geolocation button needs JavaScript.